GFSFLT2_con_3kmhel_000.txt.gz
Helicity
-0 -3 -0 -4 7 26 34 25 28 42 40 26 33 41 38 36 31 25 22 22 23 30 34 36 40 39 36 38 45 60 79 93
-8 -5 10 33 50 39 26 15 20 30 31 26 34 30 31 35 17 51 41 34 27 28 30 35 38 43 45 42 28 13 58 68
-5 9 28 34 23 31 29 24 20 21 28 37 22 36 39 29 69 43 42 36 31 30 27 24 12 21 33 25 -5 46 28 54
9 5 17 17 19 15 17 18 18 22 23 28 30 51 62 56 68 70 63 55 44 38 30 7 -13 42 43 15 46 51 31 51
1 4 9 6 11 5 6 4 3 10 17 23 41 43 57 57 64 53 48 48 36 33 35 37 50 42 58 69 73 48 60 49
-6 1 15 15 -1 -1 -11 -6 -0 -2 6 20 33 40 49 56 63 62 47 54 45 42 49 51 37 32 40 57 75 85 79 66
-9 7 16 13 5 -7 -3 -2 13 9 11 21 24 23 36 49 61 58 62 59 50 46 43 43 43 41 36 37 45 62 69 72
9 23 26 26 12 6 8 18 18 22 21 20 14 15 23 33 40 46 49 52 50 50 47 47 49 50 43 42 43 53 57 66
28 48 43 39 43 32 29 25 16 22 23 17 4 2 10 16 25 34 45 53 51 46 52 54 55 64 60 70 60 53 53 50
47 72 64 60 58 43 27 29 27 33 37 30 33 26 31 35 39 44 48 55 56 59 61 64 62 58 65 75 83 86 78 65
76 94 77 76 89 62 48 41 26 45 50 53 53 51 61 74 74 74 79 89 94 98 97 106 107 114 96 92 91 95 88 71
91 103 101 120 122 77 51 49 52 60 74 87 81 74 77 79 78 76 91 95 93 87 94 111 155 138 149 155 137 113 103 105
87 174 175 173 145 101 93 87 94 108 113 107 87 94 83 82 83 94 97 115 115 113 123 134 137 155 166 178 183 174 157 141
178 198 206 185 146 127 112 120 150 128 128 102 92 102 100 96 98 95 90 97 100 113 120 145 171 182 194 179 180 172 177 155
197 214 203 197 169 148 133 132 128 144 133 118 97 99 92 81 70 72 72 84 109 124 140 141 166 180 194 281 223 246 135 142
228 217 196 176 161 135 120 149 163 141 99 43 44 79 61 45 63 73 92 125 146 163 173 194 176 182 197 199 208 209 238 224
220 194 164 122 103 91 80 88 49 21 81 142 115 102 65 71 74 88 124 153 183 182 198 209 192 192 206 243 296 217 219 258
180 146 115 120 62 34 -1 -12 1 93 144 131 119 87 88 88 120 159 186 217 248 230 241 265 267 342 361 438 460 538 472 377
93 86 49 32 -11 -50 -26 95 137 139 144 143 116 98 91 96 128 175 219 240 239 233 208 194 197 190 236 241 253 308 404 473
117 81 50 80 122 155 147 166 158 152 142 103 72 65 73 144 172 215 245 222 200 176 289 337 293 220 143 110 76 99 149 182

GFSFLT2_con_3kmhel_006.txt.gz
Helicity
39 44 62 63 57 53 53 49 46 55 54 41 34 37 42 52 69 71 69 66 51 33 25 21 17 20 20 22 13 -8 -2 57
60 46 21 33 -3 30 34 36 35 32 29 26 26 11 7 30 50 53 56 49 38 26 16 7 4 -5 -15 -7 -1 -16 18 56
47 54 36 57 19 5 6 20 22 25 18 32 40 22 50 46 71 67 39 20 16 17 -9 -6 -1 -5 4 -17 -12 50 47 29
74 34 32 -10 46 5 3 11 -13 -2 27 20 43 61 41 39 101 95 51 28 4 18 18 -8 8 30 48 31 49 44 55 43
72 66 18 -13 21 -17 1 10 20 30 35 44 16 12 46 52 82 80 87 66 46 53 81 63 91 69 43 28 13 14 24 43
176 30 17 -1 -8 -6 9 23 33 10 45 46 43 29 51 50 46 47 35 51 53 60 68 78 79 102 82 53 35 35 20 19
167 136 29 15 15 33 41 37 59 49 51 92 72 42 63 52 34 36 36 33 40 63 67 55 76 85 117 114 75 58 65 62
181 152 44 37 40 73 64 68 64 41 90 88 71 55 63 44 55 45 38 39 62 84 84 97 102 116 75 101 126 107 78 91
315 216 102 107 93 78 72 120 68 72 100 83 73 58 60 66 54 46 52 70 101 94 99 122 126 145 156 154 182 187 188 109
235 8 147 129 136 87 71 130 103 25 60 88 99 96 77 90 82 84 81 86 105 121 120 111 122 118 122 135 171 218 241 251
12 159 139 130 163 63 104 123 69 105 102 104 203 207 168 195 113 96 96 101 109 111 120 138 140 127 120 122 115 159 208 214
105 236 334 -14 104 167 89 85 58 89 152 139 232 129 178 138 104 96 93 121 140 138 131 122 108 109 100 100 107 112 132 172
211 278 301 182 167 211 244 267 286 277 211 219 191 167 203 104 84 103 133 191 198 179 155 129 121 111 111 117 116 121 120 133
153 104 213 291 328 297 218 304 232 177 201 244 255 254 195 104 108 158 200 156 168 155 140 114 118 121 126 123 129 122 140 131
288 327 337 344 380 412 441 302 276 231 186 191 267 225 137 96 153 158 149 131 111 111 115 129 150 146 173 213 179 191 181 193
238 228 196 258 299 194 151 122 83 112 188 170 96 114 146 209 173 148 143 152 124 113 146 158 164 166 210 363 398 355 195 143
176 169 187 143 106 102 58 98 126 126 116 120 172 274 249 180 181 170 182 163 145 129 137 197 250 246 234 229 190 168 173 145
106 96 86 70 13 74 127 78 50 91 110 242 311 210 172 161 168 153 144 151 122 188 263 287 269 275 234 226 199 132 114 115
56 104 107 94 134 165 108 113 242 311 289 266 207 162 150 133 114 110 115 151 245 267 268 223 189 137 139 136 132 107 93 71
99 121 84 114 161 208 241 325 329 309 264 193 163 142 132 100 191 213 273 302 269 287 244 225 202 162 120 109 89 90 104 98

GFSFLT2_con_3kmhel_009.txt.gz
Helicity
21 44 64 65 57 52 49 41 35 34 30 38 26 33 20 24 39 44 52 44 33 26 10 1 10 11 8 11 13 20 54 66
8 27 18 -12 -6 13 14 17 19 8 23 25 14 19 7 4 36 33 23 21 18 -1 -7 -8 -2 6 3 2 25 64 64 68
2 24 2 -12 -43 -25 -8 -5 -5 -18 0 6 -7 12 14 17 41 42 19 26 13 1 11 -4 -6 -3 -8 -12 -16 10 14 45
53 41 19 -11 -21 -12 -35 -33 -33 -37 -31 3 -12 -7 12 32 56 64 37 52 30 10 20 29 34 48 15 -1 6 -10 -10 10
96 48 49 26 31 -5 -18 -40 -35 -21 -9 21 22 29 44 56 62 37 48 34 40 39 43 69 63 84 62 42 18 2 -12 -11
146 113 84 30 32 14 15 16 35 49 41 69 64 62 56 67 43 28 25 33 47 48 48 45 55 67 95 82 74 54 45 39
201 114 93 57 67 62 79 80 75 71 112 104 101 92 64 43 22 18 15 30 44 58 56 55 66 72 90 91 99 90 78 76
293 116 45 54 93 78 72 86 71 100 89 84 96 85 58 53 43 47 46 47 47 58 58 55 73 97 117 126 139 156 152 136
473 142 17 58 74 84 116 83 95 74 78 87 94 108 83 91 104 70 63 64 65 60 53 61 80 103 100 114 134 136 172 202
479 125 101 79 49 80 120 139 73 96 111 142 192 255 199 172 155 120 122 120 100 98 77 62 78 100 99 96 89 93 114 150
233 166 34 38 96 91 138 114 85 100 158 221 246 258 238 252 223 205 161 113 95 108 128 101 88 71 61 61 74 83 88 89
122 52 66 39 81 165 213 218 242 281 340 388 382 329 315 217 188 186 149 124 117 80 84 82 55 77 106 112 122 112 105 82
164 46 45 67 167 299 302 328 325 445 415 293 235 218 151 186 151 161 178 155 91 71 56 73 91 74 53 66 54 99 107 96
301 294 361 372 365 343 331 298 276 183 100 141 190 184 211 230 253 240 196 157 123 75 79 68 66 81 73 90 112 86 77 112
181 167 201 233 234 212 229 214 173 166 143 110 111 200 237 259 233 221 206 179 144 113 89 101 99 88 153 128 172 177 113 109
53 58 88 103 119 163 140 132 122 72 73 133 217 248 271 239 215 199 164 134 139 118 146 138 125 110 88 159 134 88 108 78
54 56 83 92 61 43 48 33 63 128 216 264 240 259 226 184 156 137 154 120 124 125 116 123 127 145 155 151 146 145 135 131
24 58 32 31 67 128 143 186 275 296 245 223 210 164 156 175 214 174 166 151 159 160 144 147 127 145 164 144 131 131 125 122
16 67 89 116 115 226 335 356 369 344 296 243 202 192 179 188 130 128 94 127 169 202 222 241 235 219 173 159 106 92 117 107
162 159 147 229 246 273 307 324 290 301 332 162 218 220 179 164 116 100 133 146 156 150 136 158 167 150 164 127 92 105 104 102

GFSFLT2_con_3kmhel_012.txt.gz
Helicity
21 29 44 54 42 45 46 36 17 15 11 12 8 -5 -13 -14 -1 2 -8 -8 -17 -26 -19 -5 -2 -2 6 17 38 87 65 44
6 -2 -11 -7 8 18 3 -12 -1 -1 -10 1 2 -9 -18 -19 -15 -10 -5 -13 -27 -31 -41 -27 -23 -22 -7 -3 11 31 39 23
-16 2 -22 -28 -26 -32 -19 -20 -14 -6 -2 11 1 -24 -20 -3 5 -10 2 -12 -30 -30 -26 -12 -12 -14 -21 -8 1 -8 -5 -11
4 9 -19 -29 -38 -35 -42 -44 -27 -16 -11 -1 8 18 12 13 5 2 11 17 -3 -8 -15 -14 -3 23 20 20 18 11 18 4
-9 23 1 -7 -4 -21 -26 -42 -33 -15 -3 -4 24 28 24 31 19 20 16 17 33 24 17 25 25 44 45 44 39 35 33 31
26 34 11 19 33 -2 2 4 -2 -14 -2 25 71 76 74 67 58 48 48 52 44 37 31 32 31 37 52 71 82 68 61 53
95 74 34 42 41 42 35 22 19 19 46 67 87 94 98 115 84 56 79 80 72 65 58 48 41 18 23 64 98 109 99 98
170 135 129 144 88 68 89 112 127 94 82 83 92 120 131 183 153 139 155 134 110 103 98 81 66 56 41 44 63 82 99 111
213 86 110 149 108 91 107 116 132 126 110 108 143 174 210 253 264 247 166 122 121 99 102 102 95 79 85 93 88 76 59 58
315 154 139 146 116 60 100 84 125 162 152 185 252 353 349 315 278 220 158 148 178 130 108 66 93 77 79 89 90 64 61 62
413 159 129 119 126 112 143 155 171 237 314 346 374 319 245 235 182 159 173 195 182 94 36 77 72 72 53 57 63 58 58 59
223 135 80 112 182 193 237 247 331 319 268 245 284 216 157 137 188 185 207 215 184 133 104 90 59 56 86 79 79 63 66 77
222 130 87 172 190 227 259 248 249 256 235 183 137 105 192 184 158 203 207 225 203 165 119 109 96 73 59 53 46 46 79 82
186 139 127 112 141 165 179 159 190 178 199 179 236 227 204 197 194 209 240 210 190 153 116 76 62 46 65 76 89 81 53 54
64 83 109 129 129 131 141 112 112 151 152 166 181 174 161 179 192 204 181 146 134 121 112 121 114 90 108 91 113 103 52 33
48 56 72 76 67 79 87 95 99 107 130 122 176 192 197 201 193 173 154 108 108 99 115 100 110 127 97 121 110 87 93 61
-13 8 30 2 26 52 52 62 119 162 227 264 274 265 307 318 165 126 176 215 180 156 145 152 123 111 119 114 120 125 137 103
48 50 50 34 55 103 111 170 227 264 265 302 342 337 235 226 138 115 96 93 91 76 104 146 154 181 171 183 141 123 108 101
48 105 139 161 214 248 258 268 274 309 316 290 263 199 223 171 163 130 71 59 80 90 96 114 117 145 128 144 115 82 68 106
200 170 141 139 194 233 236 222 196 180 167 222 169 82 155 107 105 105 74 65 56 77 116 141 138 129 122 113 105 121 85 101

GFSFLT2_con_3kmhel_015.txt.gz
Helicity
14 12 34 62 62 40 24 19 13 6 -4 -19 -31 -27 -26 -15 -14 -16 -16 -22 -21 -18 -13 -12 -9 -4 7 14 8 20 11 21
-2 19 37 23 13 14 8 5 5 -7 -27 -35 -25 -13 -17 -11 -11 -13 -17 -21 -16 -11 -13 -20 -17 -14 -3 11 10 5 -3 -5
1 -0 -14 -10 -11 -22 -10 -11 -12 -19 -27 -17 -6 -13 -9 -6 -11 -11 -19 -26 -24 -15 -16 -20 -20 -20 -12 10 24 13 18 12
-40 -19 -27 -21 -20 -33 -31 -28 -27 -24 -9 -3 3 1 2 6 11 4 1 -11 -13 -5 -12 -18 -2 13 11 1 18 21 25 33
-49 -45 -31 -30 -28 -40 -29 -16 -19 -17 10 16 13 17 14 25 42 54 56 34 51 54 38 33 32 41 46 37 29 29 42 40
-35 -32 -3 -41 -40 -17 -13 1 -3 10 28 29 44 65 69 79 83 106 110 88 75 61 56 44 35 27 30 37 34 51 67 62
22 10 20 -2 10 -3 9 1 7 26 43 50 68 100 106 111 140 152 140 111 85 79 62 50 47 56 53 26 13 37 68 95
61 40 39 35 51 66 21 36 18 33 51 72 91 121 145 182 183 170 153 119 107 113 105 117 112 91 72 65 48 39 60 80
107 68 45 41 55 78 66 58 57 57 119 125 150 169 188 209 197 180 156 141 166 169 158 129 126 97 100 92 94 95 92 84
167 91 86 170 128 125 106 115 128 137 164 181 201 236 252 260 213 157 136 138 161 113 63 94 76 65 82 86 87 100 106 104
337 234 271 142 147 121 77 180 216 184 241 254 269 286 234 172 159 137 131 151 154 96 106 112 109 139 125 116 105 103 104 90
384 276 186 144 104 136 136 239 263 242 242 250 221 253 239 180 177 152 117 112 158 171 160 145 124 113 118 92 89 87 123 143
228 186 123 116 111 133 168 170 152 171 233 205 139 188 131 148 140 139 124 153 150 149 134 145 123 98 56 67 66 75 151 130
138 151 101 74 121 96 82 53 94 157 122 162 168 181 184 210 182 176 163 167 193 209 171 104 65 93 59 67 70 90 88 133
108 68 51 41 18 27 55 78 101 128 146 154 194 216 215 218 217 190 219 207 181 211 165 139 109 115 158 153 151 143 134 68
54 53 58 53 37 46 42 36 53 82 129 164 211 253 284 254 289 268 93 37 100 135 76 84 100 159 108 149 118 121 112 89
110 142 107 56 67 61 56 78 132 194 237 281 292 272 255 218 172 71 141 94 95 117 111 128 115 121 113 91 95 117 122 133
118 118 85 95 131 154 171 199 216 221 206 215 239 177 215 147 148 127 131 89 49 92 120 126 101 96 106 124 164 188 209 242
171 154 141 136 153 158 165 171 163 175 217 242 232 217 188 171 165 133 73 84 87 97 91 67 66 75 108 161 174 166 147 152
180 148 137 142 151 136 137 107 120 152 184 180 184 192 183 180 143 136 143 106 113 76 79 59 49 90 119 142 190 156 132 130

GFSFLT2_con_3kmhel_021.txt.gz
Helicity
8 17 26 46 62 54 29 17 6 1 -1 -5 1 -1 -3 -4 -2 -0 2 7 12 14 19 10 -0 -9 -8 -5 3 3 5 9
8 2 28 52 41 26 17 2 -2 -3 -2 -1 -1 -2 3 6 -11 -11 -12 -7 2 4 7 8 1 -2 2 2 8 1 11 4
-2 17 22 16 11 4 -5 -7 -7 -2 -8 -2 3 -0 8 5 -6 -24 -18 -12 -1 8 17 14 3 -8 -7 1 -8 12 16 23
-5 7 4 5 -10 -12 -17 -12 -11 -15 -7 4 7 10 12 8 7 -11 3 20 33 43 49 24 11 -6 -10 2 15 19 21 25
-8 -9 -6 -15 -14 -12 -14 -12 -12 -2 6 9 15 22 30 21 25 36 46 67 70 57 59 52 40 20 14 13 20 23 28 41
-22 -14 -6 -15 -17 -15 -13 -3 2 5 15 21 33 44 56 60 65 71 76 82 107 101 99 106 77 66 49 40 39 35 35 39
-8 4 -2 -4 5 -0 13 22 16 19 28 46 51 56 77 82 93 90 102 100 122 127 121 125 134 125 108 84 86 93 94 80
27 28 25 34 36 51 56 37 31 -10 55 91 65 68 84 92 106 114 123 132 152 151 132 117 127 126 116 102 110 110 128 124
131 85 71 85 78 64 48 111 101 -35 29 53 73 94 107 109 101 120 133 182 153 183 128 150 152 130 114 118 116 128 147 154
175 180 197 177 134 83 66 168 47 93 34 56 100 102 123 134 153 163 169 224 178 183 124 151 139 135 163 177 170 168 159 141
268 264 282 283 272 66 100 85 94 54 34 44 46 69 111 191 207 176 152 175 190 174 147 118 125 150 160 138 149 146 135 137
352 306 203 197 128 71 76 85 33 43 82 84 112 141 130 139 161 178 171 178 161 126 120 91 70 96 99 108 113 95 106 179
277 264 182 123 57 65 26 40 57 70 96 136 143 145 154 177 190 169 149 156 138 125 110 125 172 171 137 132 75 49 96 179
128 107 110 69 37 -12 4 36 70 111 129 152 161 181 178 149 162 189 170 167 177 189 202 176 163 170 124 85 113 123 167 206
45 60 44 -1 -21 15 64 106 131 128 147 162 161 175 208 197 190 179 177 171 195 201 181 161 167 137 155 183 222 243 218 170
53 85 61 39 38 77 102 103 116 146 171 190 213 196 194 183 176 167 166 169 186 187 190 188 186 214 157 152 170 180 184 160
138 111 96 118 123 111 120 148 156 186 188 172 161 160 143 159 154 131 145 169 203 206 169 162 154 178 169 161 145 122 96 112
128 165 183 154 152 159 159 148 143 157 152 155 154 147 136 145 137 147 179 185 172 160 151 135 133 112 106 97 86 95 88 108
213 219 208 157 152 144 127 119 134 151 162 153 128 121 127 142 148 209 241 203 146 149 130 120 118 121 119 97 85 64 52 65
254 226 190 183 187 127 128 137 138 100 95 96 105 133 151 134 151 198 171 150 162 131 129 151 169 139 94 78 53 54 93 107